Lid_Strength_Index
4 4 4 4 3 3 2 3 3 3 2 3 3 3 3 3 4 6 8 6 4 2 4 7 7 7 9 11 11 12 16 18 16 15 14 13 14 12 11 11 9 8 9 7 3
3 3 4 4 3 3 3 3 2 3 3 2 3 3 3 3 7 8 4 2 1 2 9 9 10 9 11 12 12 13 17 16 14 14 14 13 13 13 11 12 11 10 6 4 4
1 1 2 3 3 3 3 3 3 2 3 3 3 3 3 5 11 11 2 1 1 2 8 8 8 10 13 13 13 14 16 15 13 12 12 12 13 13 14 12 11 10 8 5 5
0 0 1 1 2 2 2 3 3 2 2 3 3 3 3 7 19 7 1 0 -0 5 8 9 9 12 14 14 13 15 13 13 13 12 12 13 12 13 13 12 11 11 8 5 5
-0 0 -0 0 0 1 2 2 3 3 2 1 2 2 7 11 10 6 3 2 2 4 8 10 11 12 14 14 13 15 14 13 12 12 12 12 12 13 12 11 11 11 7 5 5
-0 -0 -0 0 -0 0 1 2 2 2 2 1 1 2 9 15 7 6 7 4 5 5 8 9 10 10 13 14 14 14 13 13 13 13 13 13 13 13 11 11 11 11 10 7 5
-0 -0 -0 -0 -0 -0 0 1 2 2 1 2 1 3 7 11 7 7 7 7 6 5 7 8 10 10 11 14 13 14 15 15 14 13 13 13 14 15 10 12 11 11 11 10 8
0 -0 -0 -0 -0 -0 0 1 1 1 1 2 2 4 9 5 6 6 6 7 5 4 5 6 7 10 12 11 13 15 16 18 16 14 13 13 18 14 12 13 12 11 11 10 10
1 0 0 -0 -0 -0 0 0 0 1 1 1 4 5 9 4 7 6 6 8 5 5 5 4 7 11 11 14 16 17 20 18 17 14 14 15 18 13 13 13 13 13 12 12 11
1 1 0 0 -0 -0 -0 0 1 1 3 3 4 8 7 10 7 6 6 5 6 6 7 8 10 13 15 16 19 18 18 18 18 15 15 16 17 15 14 14 14 13 13 13 12
1 1 0 0 -0 -0 1 2 6 8 6 9 10 9 9 7 6 7 6 7 6 7 12 11 13 15 14 14 15 15 16 16 16 13 15 16 17 16 14 15 15 14 13 13 12
1 1 1 0 0 -0 1 5 6 7 10 8 8 7 7 6 9 8 6 9 9 12 10 12 14 12 12 12 14 15 16 17 15 13 14 16 17 15 14 14 14 14 14 13 12
1 1 1 0 0 1 3 4 4 5 12 11 8 9 8 7 10 10 7 9 11 12 12 14 14 11 12 14 14 15 16 16 16 14 14 15 17 17 15 14 14 13 13 13 12
1 1 1 0 3 4 5 1 2 4 13 13 11 10 8 8 10 7 6 8 10 13 12 12 11 13 14 14 13 15 13 14 14 15 19 16 23 19 18 16 15 14 13 13 12
1 1 1 0 3 5 3 1 2 5 20 12 12 7 8 10 11 10 6 8 13 12 11 14 14 13 14 13 12 15 12 13 14 15 18 18 20 21 17 17 15 14 13 13 13
2 1 1 2 3 3 2 1 5 14 20 13 11 12 12 10 11 10 9 7 9 11 12 13 12 12 13 12 11 11 13 14 15 16 20 18 19 22 19 16 15 14 13 12 12
1 1 2 2 5 1 1 4 14 18 11 14 13 12 13 12 12 11 11 11 13 16 15 13 14 12 11 13 12 13 14 18 19 20 21 18 18 17 16 15 15 13 12 12 12
-1 -1 1 2 2 2 3 11 18 14 13 11 12 12 14 12 12 12 12 13 11 15 16 17 18 13 12 13 14 13 14 19 24 22 22 16 19 17 13 12 11 12 12 12 12
-1 1 2 2 1 2 7 15 16 13 11 12 12 14 14 12 13 13 14 14 12 12 17 17 17 14 12 11 11 14 15 13 16 21 20 19 17 15 14 14 13 13 12 12 12
2 3 3 1 1 3 10 13 12 10 9 10 15 14 17 14 15 15 15 12 12 10 12 14 18 14 12 11 11 12 12 16 16 24 24 21 19 18 16 16 14 15 14 13 12
3 7 4 0 1 7 13 12 11 8 8 11 13 16 15 14 14 14 14 12 10 11 10 12 15 16 12 13 14 13 14 13 14 16 20 22 20 16 15 14 15 14 13 13 12
6 10 4 1 9 9 12 11 8 9 8 9 10 12 13 13 14 15 14 12 9 9 12 11 13 17 16 14 12 11 12 13 16 18 16 16 18 13 14 13 14 13 13 12 12
8 10 3 3 13 12 13 11 9 10 10 10 12 10 11 12 14 13 13 10 9 9 11 10 14 17 18 14 14 16 13 12 12 13 17 18 18 12 14 14 13 13 11 10 12
8 12 8 6 11 11 13 12 12 8 9 9 11 11 11 13 14 15 12 10 9 8 7 8 17 16 19 17 14 16 14 12 12 17 16 15 15 13 12 12 12 12 11 11 11
7 11 11 13 11 11 9 10 12 12 10 9 11 11 12 17 17 18 13 11 10 7 9 12 19 17 15 12 12 13 13 13 14 13 16 14 14 13 12 13 13 12 11 11 10
9 9 8 11 10 10 9 12 11 10 11 12 12 11 12 15 14 14 12 12 12 10 11 11 21 20 21 13 13 14 13 12 12 12 13 13 13 10 12 12 12 11 11 11 10
5 5 9 9 10 11 11 11 10 9 10 9 10 11 14 12 10 10 9 10 9 11 15 15 18 22 24 20 17 17 15 12 12 11 12 15 12 12 13 12 12 12 12 11 10